Location: Krakow
(50.0830°N, 19.9170°E)
Time: 10:47:28
(UTC+01:00)

Transit 2A - Pass Details

Date: 14 February 2023
Orbit: 591 x 964 km, 66.7° (Epoch: 21 March)

Event Time Altitude Azimuth Distance (km) Brightness Sun altitude
Rises 21:27:45 0° 323° (NW) 3,473 10.2 -42.3°
Reaches altitude 10° 21:30:17 10° 329° (NNW) 2,580 9.3 -42.6°
Enters shadow 21:31:54 19° 336° (NNW) 2,046 8.6 -42.8°
Maximum altitude 21:36:09 48° 44° (NE) 1,212 - -43.3°
Drops below altitude 10° 21:42:17 10° 118° (ESE) 2,696 - -44.1°
Sets 21:44:59 0° 124° (ESE) 3,643 - -44.4°
